Location: Bow
(51.5261°N, 0.0167°W)
Time: 12:34:58
(UTC+00:00)

NOSS 2-2 (E) - Pass Details

Date: 18 September 2020
Orbit: 468 x 1739 km, 63.3° (Epoch: 22 October)

Event Time Altitude Azimuth Distance (km) Brightness Sun altitude
Rises 19:11:55 0° 204° (SSW) 2,495 6.8 -10.8°
Reaches altitude 10° 19:14:00 10° 196° (SSW) 1,631 5.7 -11.1°
Maximum altitude 19:17:19 41° 125° (SE) 739 3.5 -11.6°
Drops below altitude 10° 19:21:07 10° 54° (NE) 1,868 5.7 -12.2°
Sets 19:23:39 0° 48° (NE) 2,918 6.7 -12.6°
